Simultaneous Nadir Overpasses (SNOs) Predictions

Prediction of SNOs between METOP-B and TERRA Satellite Orbit:

Table of predicted SNOs for the next 14.0 days since TLE Epoch: 3/30/2017
Index Date (METOP-B) Time (METOP-B) Lat,Lon (METOP-B) SZA (METOP-B ) Date (TERRA) Time (TERRA) Lat,Lon (TERRA) SZA (TERRA ) Distance(km) Time Diff (sec)
1 03/31/2017 12:32:57 -81.32,-140.74 100.32 03/31/2017 12:33:03 -81.31,-140.63 100.31 2.03 6
2 03/31/2017 13:23:36 81.33, 27.31 79.75 03/31/2017 13:22:29 81.32, 27.15 79.70 2.89 67
3 04/03/2017 07:16:38 81.32, 118.43 78.65 04/03/2017 07:17:51 81.32, 118.25 78.66 3.01 73
4 04/03/2017 08:07:18 -81.33, -73.91 101.33 04/03/2017 08:07:17 -81.33, -73.82 101.31 1.92 1
5 04/03/2017 08:57:41 81.35, 100.44 79.51 04/03/2017 08:56:28 81.60, 99.86 79.54 28.70 73
6 04/
